Previsão horária em Barlogi

Hoje, 5 Agosto, Quinta-feira

Tempo Temperatura Precipitação Vento Pressão Humidade
00:00 +14°C° 0 mm 1 m/s 746 mmHg 92%
01:00 +14°C° 0 mm 1 m/s 746 mmHg 93%
02:00 +14°C° 0 mm 1 m/s 746 mmHg 93%
03:00 +13°C° 0 mm 2 m/s 746 mmHg 94%
04:00 +13°C° 0 mm 2 m/s 745 mmHg 94%
05:00 +14°C° 0 mm 2 m/s 745 mmHg 91%
06:00 +16°C° 0 mm 2 m/s 745 mmHg 88%
07:00 +17°C° 0 mm 2 m/s 745 mmHg 84%
08:00 +17°C° 0.3 mm 2 m/s 745 mmHg 86%
09:00 +17°C° 0.3 mm 2 m/s 744 mmHg 87%
10:00 +17°C° 0.3 mm 3 m/s 744 mmHg 88%
11:00 +17°C° 0.7 mm 3 m/s 744 mmHg 90%
12:00 +17°C° 0.7 mm 3 m/s 744 mmHg 92%
13:00 +17°C° 0.7 mm 3 m/s 744 mmHg 94%
14:00 +17°C° 0.4 mm 4 m/s 743 mmHg 94%
15:00 +17°C° 0.4 mm 4 m/s 743 mmHg 94%
16:00 +16°C° 0.4 mm 5 m/s 742 mmHg 94%
17:00 +16°C° 1.1 mm 5 m/s 741 mmHg 95%
18:00 +16°C° 1.1 mm 5 m/s 741 mmHg 96%
19:00 +15°C° 1.1 mm 6 m/s 740 mmHg 96%
20:00 +15°C° 5 mm 6 m/s 739 mmHg 97%
21:00 +15°C° 5 mm 5 m/s 739 mmHg 97%
22:00 +15°C° 5 mm 5 m/s 738 mmHg 97%
23:00 +15°C° 5.2 mm 5 m/s 738 mmHg 97%

Amanhã, 6 Agosto, Sexta-feira

Tempo Temperatura Precipitação Vento Pressão Humidade
00:00 +15°C° 5.2 mm 6 m/s 737 mmHg 98%
01:00 +15°C° 5.2 mm 6 m/s 736 mmHg 98%
02:00 +15°C° 3.8 mm 6 m/s 736 mmHg 98%
03:00 +15°C° 3.8 mm 6 m/s 735 mmHg 97%
04:00 +14°C° 3.8 mm 6 m/s 735 mmHg 97%
05:00 +14°C° 1.8 mm 6 m/s 735 mmHg 97%
06:00 +14°C° 1.8 mm 6 m/s 736 mmHg 97%
07:00 +13°C° 1.8 mm 6 m/s 736 mmHg 97%
08:00 +13°C° 0.7 mm 5 m/s 737 mmHg 96%
09:00 +13°C° 0.7 mm 5 m/s 737 mmHg 95%
10:00 +14°C° 0.7 mm 5 m/s 738 mmHg 95%
11:00 +14°C° 0 mm 5 m/s 738 mmHg 94%
12:00 +14°C° 0 mm 5 m/s 739 mmHg 93%
13:00 +14°C° 0 mm 5 m/s 739 mmHg 92%
14:00 +14°C° 0 mm 5 m/s 740 mmHg 90%
15:00 +14°C° 0 mm 5 m/s 740 mmHg 88%
16:00 +15°C° 0 mm 5 m/s 740 mmHg 85%
17:00 +14°C° 0 mm 4 m/s 740 mmHg 87%
18:00 +13°C° 0 mm 4 m/s 740 mmHg 88%
19:00 +13°C° 0 mm 3 m/s 741 mmHg 90%
20:00 +12°C° 0 mm 3 m/s 741 mmHg 91%
21:00 +12°C° 0 mm 3 m/s 741 mmHg 91%
22:00 +11°C° 0 mm 3 m/s 742 mmHg 92%
23:00 +11°C° 0 mm 3 m/s 742 mmHg 92%

Depois de amanhã, 7 Agosto, Sábado

Tempo Temperatura Precipitação Vento Pressão Humidade
00:00 +11°C° 0 mm 3 m/s 742 mmHg 92%
01:00 +10°C° 0 mm 3 m/s 742 mmHg 91%
02:00 +11°C° 0 mm 3 m/s 742 mmHg 92%
03:00 +11°C° 0 mm 3 m/s 742 mmHg 93%
04:00 +12°C° 0 mm 2 m/s 742 mmHg 94%
05:00 +13°C° 0 mm 3 m/s 742 mmHg 89%
06:00 +16°C° 0 mm 3 m/s 742 mmHg 85%
07:00 +17°C° 0 mm 4 m/s 742 mmHg 81%
08:00 +19°C° 0 mm 4 m/s 743 mmHg 75%
09:00 +21°C° 0 mm 5 m/s 743 mmHg 69%
10:00 +23°C° 0 mm 5 m/s 743 mmHg 64%
11:00 +25°C° 0 mm 5 m/s 743 mmHg 60%
12:00 +25°C° 0 mm 5 m/s 743 mmHg 57%
13:00 +26°C° 0 mm 5 m/s 743 mmHg 54%
14:00 +26°C° 0 mm 4 m/s 743 mmHg 55%
15:00 +26°C° 0 mm 4 m/s 743 mmHg 57%
16:00 +26°C° 0 mm 3 m/s 743 mmHg 59%
17:00 +24°C° 0 mm 3 m/s 743 mmHg 63%
18:00 +23°C° 0 mm 2 m/s 744 mmHg 68%
19:00 +20°C° 0 mm 2 m/s 744 mmHg 72%
20:00 +20°C° 0 mm 2 m/s 744 mmHg 73%
21:00 +19°C° 0 mm 2 m/s 744 mmHg 74%
22:00 +18°C° 0 mm 2 m/s 744 mmHg 76%
23:00 +18°C° 0 mm 2 m/s 744 mmHg 76%

8 Agosto, Domingo

Tempo Temperatura Precipitação Vento Pressão Humidade
00:00 +18°C° 0 mm 3 m/s 744 mmHg 76%
01:00 +18°C° 0 mm 3 m/s 744 mmHg 77%
02:00 +18°C° 0 mm 4 m/s 744 mmHg 76%
03:00 +18°C° 0 mm 4 m/s 743 mmHg 75%
04:00 +17°C° 0 mm 5 m/s 743 mmHg 75%
05:00 +19°C° 0 mm 5 m/s 743 mmHg 71%
06:00 +21°C° 0 mm 6 m/s 743 mmHg 68%
07:00 +22°C° 0 mm 6 m/s 742 mmHg 64%
08:00 +23°C° 0 mm 7 m/s 743 mmHg 61%
09:00 +24°C° 0 mm 7 m/s 743 mmHg 59%
10:00 +27°C° 0 mm 7 m/s 743 mmHg 56%
11:00 +26°C° 0 mm 7 m/s 744 mmHg 59%
12:00 +26°C° 0 mm 7 m/s 744 mmHg 62%
13:00 +26°C° 0 mm 7 m/s 744 mmHg 66%
14:00 +26°C° 0 mm 6 m/s 745 mmHg 64%
15:00 +25°C° 0 mm 5 m/s 745 mmHg 63%
16:00 +25°C° 0 mm 5 m/s 746 mmHg 62%
17:00 +23°C° 0 mm 4 m/s 746 mmHg 66%
18:00 +22°C° 0 mm 3 m/s 746 mmHg 71%
19:00 +20°C° 0 mm 2 m/s 747 mmHg 75%
20:00 +21°C° 0.1 mm 1 m/s 747 mmHg 75%
21:00 +20°C° 0.1 mm 1 m/s 747 mmHg 76%
22:00 +18°C° 0.1 mm 0 m/s 747 mmHg 76%
23:00 +18°C° 0 mm 0 m/s 747 mmHg 77%

9 Agosto, Segunda-feira

Tempo Temperatura Precipitação Vento Pressão Humidade
00:00 +17°C° 0 mm 0 m/s 747 mmHg 78%
01:00 +19°C° 0 mm 1 m/s 747 mmHg 78%
02:00 +19°C° 0 mm 1 m/s 747 mmHg 79%
03:00 +18°C° 0 mm 2 m/s 748 mmHg 79%
04:00 +18°C° 0 mm 2 m/s 748 mmHg 80%
05:00 +17°C° 0.8 mm 3 m/s 748 mmHg 85%
06:00 +17°C° 0.8 mm 3 m/s 749 mmHg 89%
07:00 +15°C° 0.8 mm 4 m/s 749 mmHg 94%
08:00 +17°C° 0.4 mm 4 m/s 749 mmHg 89%
09:00 +18°C° 0.4 mm 3 m/s 750 mmHg 84%
10:00 +19°C° 0.4 mm 3 m/s 750 mmHg 79%
11:00 +20°C° 0 mm 3 m/s 750 mmHg 72%
12:00 +21°C° 0 mm 3 m/s 750 mmHg 65%
13:00 +23°C° 0 mm 4 m/s 750 mmHg 58%
14:00 +24°C° 0 mm 3 m/s 750 mmHg 57%
15:00 +24°C° 0 mm 3 m/s 750 mmHg 56%
16:00 +24°C° 0 mm 3 m/s 750 mmHg 55%
17:00 +23°C° 0 mm 2 m/s 750 mmHg 57%
18:00 +21°C° 0 mm 2 m/s 750 mmHg 59%
19:00 +21°C° 0 mm 1 m/s 751 mmHg 61%
20:00 +21°C° 0 mm 1 m/s 751 mmHg 60%
21:00 +20°C° 0 mm 1 m/s 751 mmHg 59%
22:00 +20°C° 0 mm 1 m/s 751 mmHg 58%
23:00 +20°C° 0 mm 1 m/s 751 mmHg 58%

10 Agosto, Terça-feira

Tempo Temperatura Precipitação Vento Pressão Humidade
00:00 +20°C° 0 mm 1 m/s 751 mmHg 58%
01:00 +20°C° 0 mm 1 m/s 751 mmHg 58%
02:00 +19°C° 0 mm 1 m/s 751 mmHg 59%
03:00 +19°C° 0 mm 1 m/s 751 mmHg 60%
04:00 +19°C° 0 mm 1 m/s 751 mmHg 61%
05:00 +19°C° 0 mm 1 m/s 751 mmHg 61%
06:00 +20°C° 0 mm 1 m/s 751 mmHg 61%
07:00 +21°C° 0 mm 1 m/s 751 mmHg 61%
08:00 +22°C° 0 mm 1 m/s 751 mmHg 58%
09:00 +23°C° 0 mm 1 m/s 751 mmHg 54%
10:00 +24°C° 0 mm 1 m/s 751 mmHg 51%
11:00 +24°C° 0 mm 1 m/s 751 mmHg 49%
12:00 +25°C° 0 mm 1 m/s 751 mmHg 47%
13:00 +25°C° 0 mm 1 m/s 750 mmHg 46%
14:00 +24°C° 0 mm 1 m/s 750 mmHg 49%
15:00 +24°C° 0 mm 1 m/s 750 mmHg 52%
16:00 +23°C° 0 mm 1 m/s 750 mmHg 55%
17:00 +22°C° 0 mm 1 m/s 750 mmHg 57%
18:00 +21°C° 0 mm 1 m/s 750 mmHg 60%
19:00 +20°C° 0 mm 1 m/s 750 mmHg 62%
20:00 +19°C° 0.1 mm 1 m/s 750 mmHg 66%
21:00 +19°C° 0.1 mm 1 m/s 750 mmHg 70%
22:00 +18°C° 0.1 mm 1 m/s 750 mmHg 74%
23:00 +18°C° 0.1 mm 1 m/s 750 mmHg 77%
Mostrar mais